Miscellaneous Local Product
Issued by NWS Hastings, NE

Home | Current Version | Previous Version | Text Only | Print | Product List | Glossary On
Versions: 1 2 3 4 5 6 7 8 9 10 11 12 13 14 15 16 17 18 19 20 21 22 23 24 25 26 27 28 29 30 31 32 33 34 35 36 37 38 39 40 41 42 43 44 45 46 47 48 49 50
000
AXUS43 KGID 061102
MISGRI

GID CWA HOURLY WEATHER ROUNDUP
NATIONAL WEATHER SERVICE HASTINGS NE
500 AM CST FRI MAR 06 2015

NOTE: "FAIR" INDICATES FEW OR NO CLOUDS BELOW 12,000 FEET WITH NO
SIGNIFICANT WEATHER AND/OR OBSTRUCTIONS TO VISIBILITY.

...SOUTH CENTRAL NEBRASKA...

CITY           SKY/WX    TMP DP  RH WIND       PRES   REMARKS
GRAND ISLAND   CLEAR     23  12  62 SW5       30.19S WCI  17
HASTINGS       CLEAR     25  12  58 W8        30.19S WCI  16
KEARNEY        CLEAR     27  12  54 SW7       30.20S WCI  19
ORD            CLEAR     14   6  70 NW3       30.16S
YORK           CLEAR     21  14  73 W9        30.19S WCI  11
AURORA         CLEAR     21  11  66 SW8       30.18S WCI  11
LEXINGTON      CLEAR     21  14  76 W9        30.21S WCI  10
HOLDREGE       CLEAR     25  13  60 W9        30.21R WCI  16
HEBRON         CLEAR     27  13  56 W10       30.23R WCI  17

...NEBRASKA PANHANDLE...

CITY           SKY/WX    TMP DP  RH WIND       PRES   REMARKS
CHADRON        CLOUDY    33  23  66 CALM      30.18S
ALLIANCE       CLOUDY    22  17  81 CALM      30.18S
SCOTTSBLUFF    MOCLDY    30  22  72 NW6       30.20F WCI  24
SIDNEY         PTCLDY    28  17  63 W10       30.21S WCI  19

...WESTERN AND NORTH CENTRAL NEBRASKA...

CITY           SKY/WX    TMP DP  RH WIND       PRES   REMARKS
VALENTINE      CLEAR     24  19  81 SW8       30.13F WCI  15
AINSWORTH      CLEAR     27  20  75 W9        30.13S WCI  17
ONEILL         CLEAR     25  19  77 W6        30.14R WCI  18
BROKEN BOW     CLEAR     31  16  54 W10       30.16F WCI  22
IMPERIAL         N/A     28  17  63 W12       30.22S WCI  18
NORTH PLATTE   CLEAR     14  10  84 NW6       30.21S WCI   5
MCCOOK         CLEAR     24  17  74 W9        30.23S WCI  14

...EASTERN NEBRASKA...

CITY           SKY/WX    TMP DP  RH WIND       PRES   REMARKS
NORFOLK        CLEAR     23  11  60 W6        30.13F WCI  16
SO SIOUX CITY  CLEAR     17   9  70 E6        30.15S WCI   9
TEKAMAH        CLEAR     18  10  71 S9        30.17S WCI   7
COLUMBUS       CLEAR     21   5  49 W8        30.18R WCI  12
ALBION         PTCLDY    17   8  66 CALM      30.15S
OMAHA EPPLEY   CLEAR     20  13  74 SE9       30.20S WCI   9
OFFUTT AFB     CLEAR     16  11  80 E3        30.18F
MILLARD        CLEAR     21  14  73 CALM      30.18F
LINCOLN        CLEAR     26  14  60 SW6       30.20F WCI  19
NEBRASKA CITY  CLEAR     26  15  62 SW14      30.19F WCI  14
BEATRICE       CLEAR     25  17  71 SW8       30.22S WCI  16
FALLS CITY     CLEAR     25  17  72 SW7       30.24S WCI  17

...NORTHERN KANSAS...

CITY           SKY/WX    TMP DP  RH WIND       PRES   REMARKS
GOODLAND       CLEAR     26  20  77 W10       30.24F WCI  16
HILL CITY      CLEAR     27  18  69 W9        30.26R WCI  18
NORTON         SUNNY     19  12  73 W7        30.23R WCI  10
PHILLIPSBURG   CLEAR     27  18  69 W7        30.25R WCI  19
SMITH CENTER   CLEAR     21  12  68 W3        30.25S
BELOIT         CLEAR     21  10  63 CALM      30.26S
HAYS           CLEAR     27  12  54 SW8       30.27S WCI  18
RUSSELL        CLEAR     23  16  74 SW10      30.26S WCI  12
CONCORDIA      CLEAR     29  17  61 SW12      30.25R WCI  19
SALINA         CLEAR     25  19  78 S6        30.30S WCI  18
TOPEKA         CLEAR     29  18  63 SW8       30.32S WCI  21



USA.gov is the U.S. government's official web portal to all federal, state and local government web resources and services.